STARLINK-35180, 65462

Orbit data source: Space-Track

STARLINK-35180, 65462 is a payload satellite owned by SpaceX/Seattle (US) in LEO that was launched on Wed, 03 Sep 2025 UTC via an FALCON 9 launch vehicle from the Air Force Eastern Test Range (AFETR). Payload-class satellites include a variety of spacecraft equipped with specific instruments for various scientific and technological missions. These include communications satellites like Starlink; space stations such as the ISS; scientific satellites like the Hubble; Earth observation satellites from companies like Planet Labs, Umbra, and HawkEye 360; GPS; miniature CubeSats for education and research; and military/defense satellites.

Loading next visibility...
Identifier
65462, 2025-195E
Orbit
LEO
Country
Flag of USUS
Related business
Manufacturer
SpaceX/Seattle
Mission
Operational Commercial Communications
Bus & Motor
STARLINK V2MO, Unknown motor
Mass
575 kg wet, ~530 kg dry
Launch date (UTC)
2025-09-03 (10 months ago)
Launch vehicle
FALCON 9
Launch site
Air Force Eastern Test Range (AFETR)
Object type
Payload
Rocket body
Debris
Shape & HBR
Box + 2 Pan, 17.7 m
Radar Cross Section
36.964 m², Large (>1 m²)

Expand to show TLE details & history
Last TLE update: 15 hours ago

TLE from 15 hours ago
0 STARLINK-35180
1 65462U 25195E   26171.20996174  .00019053  00000-0  57355-3 0  9996
2 65462  53.1584 141.0225 0000982  93.6423 266.4692 15.34401908 45708
Epoch: 2026-06-20T05:02Z
TLE epoch observation values (Epoch: 2026-06-20T05:02:20.694Z)
Latitude
-0°
Longitude
157.00841°
Altitude
463.64 km
Speed
7.636 km/s
True Right ascension
09h 24m 05s
True Declination
0° 00' 00"
Sunlit
Object was in daylight at epoch
Visualization orbit readout
Latitude
Unknown
Longitude
Unknown
Altitude
Unknown
Speed
Unknown
Apparent Right ascension
Unknown
Apparent Declination
Unknown
Sunlit
N/A
Visualization observer readout
Local Sidereal Time
07:20:32
Azimuth
Unknown
Elevation
Unknown
Doppler factor
Unknown
Orbital elements
Apogee altitude
463.627 km
Perigee altitude
462.283 km
Semi-major axis
6,841.092 km
Eccentricity
0.0001
Inclination
53.1584°
RAAN
141.0225°
Arg. of periapsis
93.6423°
True anomaly
266.45797°
Mean anomaly
266.4692°
Eccentric anomaly
266.46358°
Mean motion
3.83579 °/min
Orbital period
93.85 mins
BSTAR
0.00057355
Loading maneuver chart data...
Computing Atmospheric mass density...
Loading historical data...
Loading historical data...
Loading historical data...
Loading historical data...
Loading historical data...
Loading historical data...
Loading historical data...

Documentation

Showing up to 5 results
|